Batman, Turkey

1:44 PM +03 on January 16, 2018 (GMT +0300)
Batman Air Base

Weather History for LTCJ - July, 2012

Change the Weather History Date:

Saturday, July 28, 2012

  Actual Average (LTCC) Record (LTCC)
Temperature  
Mean Temperature 88 °F -  
Max Temperature 109 °F 101 °F 113 °F (2011)
Min Temperature 66 °F 72 °F 66 °F (2014)
Cooling Degree Days 22    
Growing Degree Days 38 (Base 50)    
Moisture  
Dew Point 47 °F    
Average Humidity 29    
Maximum Humidity 73    
Minimum Humidity 7    
Precipitation  
Precipitation 0.00 in - - ()
Sea Level Pressure  
Sea Level Pressure 29.55 in    
Wind  
Wind Speed 5 mph ()    
Max Wind Speed 13 mph    
Max Gust Speed 25 mph    
Visibility 6.2 miles    
Events      
Averages and records for this station are not official NWS values.
T = Trace of Precipitation, MM = Missing Value Source: Averaged Metar Reports

Daily Weather History Graph

Daily Weather History Graph

Search for Another Location

Airport or City:

Trip Planner

Search our weather history database for the weather conditions in past years. The results will help you decide how hot, cold, wet, or windy it might be!

Date:

Astronomy

Jul. 28, 2012 Rise Set
Actual Time 5:15 AM EEST 7:27 PM EEST
Civil Twilight 4:46 AM EEST 7:57 PM EEST
Nautical Twilight 4:09 AM EEST 8:33 PM EEST
Astronomical Twilight 3:30 AM EEST 9:12 PM EEST
Moon 3:07 PM EEST (7/28) 12:17 AM EEST (7/28)
Length of Visible Light 15h 11m
Length of Day
14h 12m
Waxing Gibbous, 72% of the Moon is Illuminated
Jul 28
Waxing Gibbous
Aug 2
Full
Aug 9
Last Quarter
Aug 17
New
Aug 24
First Quarter

Hourly Weather History & Observations

Time (EEST) Temp. Heat Index Dew Point Humidity Pressure Visibility Wind Dir Wind Speed Gust Speed Precip Events Conditions
12:20 AM 77.0 °F - 53.6 °F 44% 29.59 in - WNW 1.2 mph - N/A   Clear
12:50 AM 77.0 °F - 50.0 °F 39% 29.59 in - NNE 4.6 mph - N/A   Clear
1:20 AM 73.4 °F - 53.6 °F 50% 29.59 in - NNE 6.9 mph - N/A   Clear
1:50 AM 71.6 °F - 57.2 °F 60% 29.59 in - NNE 6.9 mph - N/A   Clear
2:20 AM 73.4 °F - 51.8 °F 47% 29.59 in - NNE 6.9 mph - N/A   Clear
3:20 AM 68.0 °F - 57.2 °F 68% 29.59 in - NNE 5.8 mph - N/A   Clear
3:50 AM 69.8 °F - 57.2 °F 64% 29.59 in - NNE 9.2 mph - N/A   Clear
4:50 AM 68.0 °F - 55.4 °F 64% 29.59 in - NE 5.8 mph - N/A   Clear
5:20 AM 66.2 °F - 57.2 °F 73% 29.59 in - North 4.6 mph - N/A   Clear
5:50 AM 69.8 °F - 48.2 °F 46% 29.59 in - NE 5.8 mph - N/A   Clear
6:20 AM 71.6 °F - 50.0 °F 46% 29.59 in - Variable 2.3 mph - N/A   Clear
7:20 AM 78.8 °F - 50.0 °F 36% 29.59 in - Variable 1.2 mph - N/A   Clear
7:50 AM 77.0 °F - 57.2 °F 50% 29.59 in - WSW 6.9 mph - N/A   Clear
8:20 AM 80.6 °F - 51.8 °F 37% 29.59 in - SSW 5.8 mph - N/A   Clear
8:50 AM 84.2 °F - 51.8 °F 33% 29.59 in - WSW 3.5 mph - N/A   Clear
9:20 AM 86.0 °F 84.5 °F 55.4 °F 35% 29.59 in - WSW 4.6 mph - N/A   Clear
9:50 AM 91.4 °F 89.1 °F 53.6 °F 28% 29.59 in - WSW 4.6 mph - N/A   Clear
10:20 AM 95.0 °F - 51.8 °F 23% 29.59 in - WSW 3.5 mph - N/A   Clear
10:50 AM 98.6 °F 96.4 °F 53.6 °F 22% 29.56 in - Variable 2.3 mph - N/A   Clear
11:20 AM 100.4 °F - 50.0 °F 18% 29.56 in - WNW 5.8 mph - N/A   Clear
11:50 AM 105.8 °F 104.3 °F 53.6 °F 18% 29.53 in - NNW 9.2 mph - N/A   Clear
12:20 PM 107.6 °F - 32.0 °F 7% 29.53 in - East 9.2 mph 20.7 mph N/A   Clear
12:50 PM 109.4 °F - 33.8 °F 7% 29.53 in - East 11.5 mph 25.3 mph N/A   Clear
1:20 PM 107.6 °F - 32.0 °F 7% 29.53 in - Variable 6.9 mph - N/A   Clear
1:50 PM 107.6 °F - 33.8 °F 8% 29.50 in 6.2 mi SE 11.5 mph - N/A   Mostly Cloudy
2:20 PM 107.6 °F - 32.0 °F 7% 29.50 in 6.2 mi SSE 11.5 mph - N/A   Mostly Cloudy
2:50 PM 109.4 °F - 33.8 °F 7% 29.50 in 6.2 mi SSE 10.4 mph - N/A   Scattered Clouds
3:20 PM 109.4 °F - 33.8 °F 7% 29.50 in 6.2 mi SE 12.7 mph - N/A   Scattered Clouds
3:50 PM 107.6 °F - 32.0 °F 7% 29.47 in 6.2 mi SSE 8.1 mph - N/A   Scattered Clouds
4:20 PM 107.6 °F - 35.6 °F 8% 29.47 in 6.2 mi SE 10.4 mph - N/A   Scattered Clouds
4:50 PM 107.6 °F - 32.0 °F 7% 29.47 in 6.2 mi SSE 10.4 mph - N/A   Scattered Clouds
5:20 PM 105.8 °F - 33.8 °F 8% 29.47 in 6.2 mi SE 11.5 mph - N/A   Scattered Clouds
5:50 PM 105.8 °F - 33.8 °F 8% 29.47 in 6.2 mi SE 11.5 mph - N/A   Scattered Clouds
6:20 PM 105.8 °F - 35.6 °F 9% 29.47 in 6.2 mi SSE 10.4 mph - N/A   Scattered Clouds
6:50 PM 100.4 °F - 35.6 °F 11% 29.50 in 6.2 mi South 6.9 mph - N/A   Scattered Clouds
7:20 PM 95.0 °F - 44.6 °F 18% 29.50 in 6.2 mi SSW 8.1 mph - N/A   Partly Cloudy
7:50 PM 91.4 °F - 48.2 °F 23% 29.53 in 6.2 mi SW 6.9 mph - N/A   Partly Cloudy
8:20 PM 91.4 °F - 50.0 °F 24% 29.53 in 6.2 mi WSW 4.6 mph - N/A   Partly Cloudy
8:50 PM 91.4 °F - 48.2 °F 23% 29.56 in 6.2 mi Variable 2.3 mph - N/A   Partly Cloudy
9:20 PM 89.6 °F - 48.2 °F 24% 29.56 in 6.2 mi Calm Calm - N/A   Partly Cloudy
9:50 PM 89.6 °F - 48.2 °F 24% 29.56 in 6.2 mi South 3.5 mph - N/A   Scattered Clouds
10:20 PM 86.0 °F - 50.0 °F 29% 29.56 in 6.2 mi ENE 3.5 mph - N/A   Scattered Clouds
10:50 PM 82.4 °F 82.5 °F 59.0 °F 45% 29.56 in 6.2 mi Calm Calm - N/A   Scattered Clouds
11:20 PM 82.4 °F 82.0 °F 57.2 °F 42% 29.56 in 6.2 mi North 5.8 mph - N/A   Scattered Clouds
11:50 PM 82.4 °F 82.0 °F 57.2 °F 42% 29.56 in 6.2 mi Variable 2.3 mph - N/A   Scattered Clouds